Wind_Speed
60 66 72 75 76 75 75 75 75 74 74 73 72 72 72 71 70 70 70 72 74 74 74 74 75 75 74 74 73 73 72 72 73 74 77 82 85 84 83 83 82 81 80 80 79 78 78 77 76 76 75 74 73 72 71 70 69 68 66 65 64 64 65 64 62 59 55 52 52 54 54 53 52 52 51 50 50 49 48 47 47 46 44 44 43 42 42 40
57 61 67 73 78 79 79 79 78 78 77 76 75 74 73 73 73 72 71 71 72 74 74 74 74 74 75 75 76 75 73 72 70 70 73 77 79 80 81 81 81 80 80 80 80 80 79 78 78 77 76 75 74 73 72 71 70 69 68 67 67 67 67 65 62 59 56 54 54 55 55 54 53 53 52 51 50 49 48 48 47 46 45 44 44 43 43 41
58 60 62 67 75 80 83 83 82 81 80 79 78 76 76 75 75 74 73 72 72 73 74 74 74 74 74 75 76 77 75 73 71 70 71 73 74 76 77 77 78 78 79 79 80 80 79 79 79 78 78 77 75 74 73 72 71 71 69 69 69 69 69 66 63 60 57 55 55 57 57 55 54 53 53 52 51 50 49 49 48 47 46 45 44 44 44 42
61 62 63 65 69 76 83 86 86 85 84 82 81 80 78 77 76 76 75 75 74 73 73 74 74 74 74 74 75 76 76 75 73 72 72 72 71 71 71 71 73 75 76 77 78 78 78 78 79 79 78 78 77 76 74 73 73 72 71 70 70 70 70 67 63 60 58 57 57 58 58 56 55 54 54 53 52 51 50 50 49 48 47 46 46 45 45 44
64 65 66 66 68 72 79 86 89 89 88 86 85 83 82 80 79 77 77 76 76 75 74 74 75 74 74 74 74 74 76 76 75 74 74 73 71 68 67 67 68 70 72 73 73 74 75 75 76 77 77 77 77 76 76 75 74 73 73 72 71 72 70 66 63 61 59 59 59 60 60 58 56 56 55 55 53 52 51 52 50 49 48 48 47 47 47 45
68 68 69 69 70 71 76 82 89 92 92 90 88 86 85 83 81 80 79 78 77 77 76 75 75 75 76 75 74 73 74 75 74 76 77 76 73 69 67 66 66 67 68 68 68 69 70 71 72 73 75 76 76 76 76 76 75 74 74 72 73 73 69 66 64 62 61 60 60 61 61 60 58 57 57 56 55 54 54 53 51 50 50 49 49 48 48 46
71 71 72 72 72 73 76 81 86 92 95 94 92 90 88 86 85 83 81 80 78 78 77 76 76 76 77 76 75 73 73 72 73 77 79 78 75 71 69 68 67 66 65 65 64 65 65 66 67 69 71 72 73 74 74 75 75 74 73 73 73 72 69 67 65 63 62 61 61 62 62 61 60 59 58 57 57 56 55 54 52 52 51 50 50 49 49 47
74 74 74 74 75 76 78 81 85 90 95 97 96 94 92 90 88 86 84 82 80 79 78 78 77 77 77 77 76 74 72 73 74 77 79 79 77 74 72 70 68 66 65 64 63 63 63 63 63 65 66 67 69 70 70 71 72 72 72 73 73 72 69 67 66 65 64 63 63 63 63 62 61 60 59 59 58 57 56 55 54 53 53 52 51 50 50 48
76 76 76 76 77 78 79 82 85 89 93 98 99 98 96 93 91 89 87 85 83 81 79 78 78 78 78 77 76 75 74 75 75 76 77 78 78 76 75 73 70 68 67 65 64 63 61 60 61 62 62 62 64 64 65 66 67 68 69 70 71 70 68 66 67 66 65 64 64 64 64 63 62 61 61 60 60 58 57 56 55 55 54 53 53 52 51 49
78 78 77 77 78 79 80 82 85 89 92 96 100 100 99 97 94 91 90 88 85 83 81 79 79 79 78 77 75 74 77 79 76 75 76 76 77 77 77 75 72 70 68 67 65 64 62 62 61 60 59 59 59 58 60 60 61 62 64 66 66 65 64 65 65 65 64 64 64 64 64 63 63 62 62 62 61 59 58 58 57 56 56 55 54 53 52 50
80 79 79 79 79 79 80 82 84 88 91 94 99 101 101 100 97 94 92 91 88 85 83 81 80 79 78 77 75 75 80 81 77 75 75 75 76 76 77 77 75 73 71 69 67 66 65 63 61 58 57 55 55 55 55 55 56 58 59 60 61 59 59 61 62 62 62 62 63 63 63 63 63 63 63 62 61 60 59 59 58 57 57 56 55 53 52 51
80 80 80 79 79 78 79 81 83 86 89 93 97 101 103 102 100 97 95 93 91 88 85 83 81 80 78 76 75 78 81 80 78 77 75 75 75 75 76 77 77 76 74 71 70 68 66 63 61 58 55 53 53 52 52 52 53 54 55 55 55 53 54 56 57 57 58 59 59 60 61 62 62 62 62 62 61 60 60 59 59 58 58 56 56 54 53 52
79 78 78 78 78 77 77 80 82 84 87 91 95 99 103 104 102 100 97 95 93 90 88 85 82 80 78 76 79 81 80 78 78 78 77 76 75 74 75 76 78 78 76 74 72 69 67 64 62 58 55 53 51 49 50 51 52 52 52 51 50 49 50 51 51 51 52 54 54 55 57 57 58 60 60 59 59 59 59 60 59 58 58 57 56 55 54 53
75 75 74 75 75 76 76 77 80 82 85 88 92 97 101 104 104 102 99 97 95 93 91 88 84 81 77 78 82 81 79 79 79 80 79 77 75 75 74 75 77 78 78 76 73 70 67 64 62 58 56 54 50 49 50 50 50 50 49 48 46 46 47 47 47 47 48 49 49 50 51 51 53 56 55 55 55 56 57 57 57 57 56 57 56 55 54 54
70 71 71 72 73 75 75 76 78 81 83 86 90 94 98 103 105 104 101 99 97 95 93 90 86 83 79 82 84 81 81 81 79 80 80 78 76 75 74 74 76 78 78 77 73 71 68 66 63 59 57 54 52 51 50 49 49 48 47 45 44 45 45 45 45 44 46 46 46 47 46 47 51 52 51 50 51 51 52 52 52 53 54 54 54 54 54 53
67 68 69 71 72 74 75 76 77 79 82 84 87 91 95 100 104 104 103 101 99 97 95 92 89 85 83 85 85 81 83 83 79 78 78 79 77 75 74 74 75 76 77 76 74 72 70 67 63 60 57 55 54 52 51 50 49 47 46 45 44 45 44 44 44 43 45 45 45 45 43 45 51 50 48 47 47 46 47 46 47 48 49 50 51 53 53 52
65 67 69 70 72 74 75 75 76 78 80 82 85 88 92 96 100 104 104 102 101 99 96 94 92 89 87 88 86 83 83 83 79 76 77 79 78 76 75 74 74 75 75 76 75 74 71 68 64 61 59 57 55 54 52 51 49 48 48 47 46 46 46 46 44 43 44 43 42 43 42 44 48 48 46 45 43 42 41 40 41 44 44 46 48 49 49 48
64 66 68 70 71 73 75 76 77 77 79 80 82 85 88 92 96 101 103 103 102 101 98 96 94 92 91 91 88 84 84 82 79 78 78 79 79 78 76 74 74 73 74 76 75 74 72 69 66 63 60 57 54 53 52 51 51 51 51 51 50 50 49 46 43 43 43 42 41 41 40 41 44 45 43 42 39 37 35 33 37 42 43 43 43 42 41 41
63 65 67 69 70 72 74 76 78 78 78 79 80 81 84 87 91 96 100 102 102 102 100 97 97 95 94 93 90 86 84 83 81 80 79 79 80 79 77 75 74 73 73 74 74 74 72 70 68 63 58 55 54 54 54 54 54 55 55 54 52 50 48 44 44 44 43 42 41 40 39 39 41 42 40 38 36 35 34 33 40 48 45 39 36 33 31 32
59 60 63 65 67 69 71 73 75 77 78 78 78 79 81 84 87 91 96 100 103 104 102 100 99 97 96 95 92 89 86 84 82 81 79 79 79 80 78 76 74 73 71 71 72 73 72 71 67 62 59 58 59 59 58 57 58 59 57 53 50 49 46 44 44 44 43 41 40 40 39 38 39 39 37 35 34 35 37 39 46 49 43 35 30 27 25 22
55 56 58 60 62 64 66 68 70 72 74 76 77 78 79 82 84 87 92 97 103 105 103 102 101 99 98 98 95 92 88 85 83 81 80 79 79 80 79 77 74 71 70 70 70 71 73 70 66 64 64 63 62 62 60 61 61 60 56 52 51 48 45 45 45 43 42 41 40 39 39 39 39 38 36 34 34 35 37 41 43 42 40 38 33 30 32 32
53 52 53 54 56 59 61 63 65 66 68 70 72 75 78 80 82 84 88 93 99 102 102 101 101 101 100 100 98 94 90 87 84 82 81 80 79 78 79 77 73 71 70 68 68 69 70 68 67 67 66 65 64 63 62 63 62 59 56 54 51 48 47 47 46 44 43 42 41 39 39 39 39 38 37 35 34 35 37 39 40 39 39 41 40 38 41 43
50 48 48 49 50 52 55 57 59 60 62 63 66 70 74 77 78 81 85 89 94 98 99 100 102 103 103 101 99 95 92 90 86 83 82 80 78 77 78 76 73 71 68 66 66 66 65 66 67 67 67 68 66 65 64 63 61 59 57 55 52 50 50 48 46 45 44 42 41 40 39 39 39 38 38 36 35 35 36 38 39 40 40 40 43 44 46 47
46 44 43 43 44 46 48 51 53 55 56 58 61 65 68 70 74 78 82 85 90 93 95 98 101 103 104 102 100 97 95 92 88 84 82 81 79 77 76 76 74 70 66 66 65 64 65 66 67 68 70 70 68 66 65 63 62 60 59 57 53 52 50 48 47 47 45 44 42 41 40 39 39 38 38 37 37 36 36 38 39 41 41 41 44 47 49 52
42 41 40 39 39 40 42 45 48 50 52 54 57 61 63 66 69 74 79 83 88 91 92 95 99 103 104 101 99 98 96 93 89 85 83 82 80 77 76 76 74 70 68 67 65 64 64 65 68 72 72 70 68 68 66 65 64 62 61 58 54 53 52 51 50 49 47 45 43 42 42 41 40 39 39 39 39 38 38 39 40 41 42 42 44 47 50 52
39 38 37 36 34 34 36 39 42 45 48 50 53 56 60 63 66 69 74 79 85 90 90 92 97 102 102 100 99 98 96 94 90 87 85 83 81 78 75 74 73 72 69 67 66 64 62 64 70 73 72 71 70 68 67 67 66 64 62 59 57 56 55 54 53 51 49 47 46 45 44 42 40 40 40 40 40 40 39 39 40 41 42 43 43 46 48 52
37 35 33 32 31 31 32 33 37 41 44 46 48 52 56 60 63 66 70 75 81 87 88 91 96 98 97 99 100 99 96 94 91 89 86 84 82 79 75 74 74 72 69 67 66 63 60 64 68 70 71 72 70 69 68 67 66 65 64 61 60 59 58 56 55 52 51 50 48 46 44 43 42 41 41 41 41 41 40 40 41 41 42 43 43 44 47 51
34 32 30 29 28 28 28 30 33 37 40 42 45 49 52 56 59 63 67 71 77 84 87 92 95 95 95 98 100 99 96 93 91 90 88 86 84 80 77 75 73 72 69 67 64 61 61 64 65 67 69 69 69 69 68 68 67 66 65 64 62 61 59 58 56 53 52 51 49 47 45 45 44 43 42 42 42 41 41 43 43 43 43 43 44 45 47 50
30 29 27 25 24 24 25 27 29 33 37 39 42 45 47 50 55 60 64 67 74 81 85 90 94 94 95 98 99 98 96 94 92 91 89 87 84 82 78 75 73 73 71 69 65 62 62 63 63 66 68 69 69 68 68 69 68 66 66 65 63 62 60 58 56 55 53 51 49 47 47 47 46 45 44 43 43 43 44 44 44 44 45 45 45 46 47 50
26 25 23 21 20 20 22 24 27 30 34 36 39 41 44 47 51 56 60 64 71 76 81 88 93 94 95 96 97 98 97 94 92 92 91 88 86 83 79 75 73 73 73 71 66 62 62 63 63 65 67 68 69 69 70 69 67 67 67 65 63 62 60 59 57 55 53 51 49 48 48 48 47 45 44 44 45 45 45 44 45 46 46 46 46 47 49 50
22 21 19 17 17 17 19 22 25 28 31 33 36 38 41 43 46 51 57 63 69 73 78 85 91 93 93 95 97 98 96 93 91 91 91 88 87 84 79 76 75 75 74 70 64 62 64 64 62 62 63 65 68 71 71 68 67 67 66 64 63 62 60 59 57 55 53 50 49 48 49 48 47 45 44 46 47 46 45 46 47 47 47 47 46 47 49 50
18 17 15 14 13 14 16 19 23 26 29 31 33 36 38 40 42 48 57 65 69 72 77 84 89 92 93 95 97 97 95 92 91 90 89 87 85 82 78 76 73 72 71 67 63 63 64 62 60 60 61 64 67 68 68 67 68 67 65 63 61 60 59 58 56 54 52 49 48 48 49 49 47 45 45 45 46 46 47 48 48 48 48 48 48 49 50 51
15 13 11 10 10 11 14 17 21 24 27 29 31 33 36 39 44 51 58 64 68 71 77 83 88 91 94 97 97 96 95 93 91 90 89 88 86 82 79 76 72 69 68 65 63 63 62 59 59 59 60 61 62 63 63 63 63 63 62 61 59 58 56 54 53 53 51 48 47 49 50 48 45 45 46 45 45 47 49 49 49 49 49 49 50 51 51 52
13 11 10 8 7 9 12 16 19 21 24 27 29 33 37 41 47 53 58 62 67 71 77 83 88 91 95 96 95 94 94 93 92 90 89 88 86 83 81 76 72 70 69 66 63 60 58 55 55 55 56 56 57 58 60 61 61 61 60 60 59 58 55 54 52 52 50 47 47 50 50 46 44 45 47 47 47 48 49 50 50 49 50 50 50 52 53 54
12 11 9 8 6 8 11 15 18 20 23 26 29 32 36 41 46 51 57 62 67 71 77 83 87 90 93 95 95 94 93 93 92 91 89 87 84 82 79 74 71 69 67 65 62 59 56 54 53 52 52 53 55 56 58 60 62 62 61 59 59 58 56 55 53 51 50 48 49 50 48 45 44 46 48 49 49 50 50 50 51 51 51 51 51 53 54 56
12 10 9 7 6 7 9 13 17 20 23 26 30 34 37 42 46 52 57 62 66 71 77 82 86 89 91 92 94 93 93 93 91 90 89 87 84 81 78 75 71 67 65 64 62 60 57 55 54 53 52 53 55 55 57 59 60 60 58 58 58 56 53 52 52 51 50 49 50 50 48 46 46 47 48 49 50 51 51 52 52 52 51 51 52 53 55 57
12 10 8 6 4 5 7 10 14 18 22 25 30 36 40 44 47 52 56 59 64 70 75 79 83 85 88 89 91 92 92 92 91 89 88 87 84 81 78 74 69 66 66 64 60 59 57 54 54 54 55 55 55 56 58 59 57 55 54 54 54 51 51 52 52 50 49 49 49 48 46 46 46 47 48 49 50 51 52 53 53 52 52 52 53 54 55 56
12 11 9 6 3 2 4 7 11 15 19 24 29 35 40 43 46 49 53 58 63 68 73 77 80 83 84 86 88 90 91 91 90 89 88 85 82 79 76 72 68 67 66 63 60 58 56 55 56 56 55 55 55 56 58 56 53 53 53 52 50 48 50 51 49 48 48 49 48 47 46 46 45 46 48 49 51 52 53 53 52 53 53 53 53 54 55 55
12 12 9 6 3 1 4 5 8 12 16 21 26 31 35 39 42 47 52 57 62 67 72 76 79 81 82 83 86 88 90 90 89 88 86 83 80 77 74 70 68 67 65 63 61 59 57 56 57 55 54 54 54 53 53 51 51 52 50 48 48 48 47 47 46 47 48 48 48 48 47 46 46 47 49 51 52 52 53 53 53 53 53 53 54 54 55 55
12 12 9 7 5 5 6 7 8 10 14 17 21 25 30 34 40 45 51 56 61 66 70 74 77 79 79 81 84 87 88 89 88 86 84 82 79 76 73 70 67 66 65 63 61 59 57 56 55 53 52 50 48 47 48 49 49 48 45 43 43 43 42 42 43 44 47 48 48 49 48 48 48 50 52 53 54 54 54 54 54 54 54 54 54 55 55 56
11 11 9 8 8 8 9 9 10 12 15 19 22 25 29 34 40 45 51 56 60 64 67 71 74 76 77 78 81 84 86 87 87 85 83 80 78 75 71 68 66 66 64 62 60 58 57 56 53 51 49 47 45 46 48 48 48 47 45 44 43 41 40 41 41 43 46 48 48 49 50 51 51 52 53 54 55 56 55 55 54 54 54 54 54 55 55 56
9 10 10 10 10 10 10 11 12 13 15 19 23 26 30 34 39 44 49 54 59 63 66 69 71 72 74 76 78 81 84 86 85 83 80 78 76 73 69 67 66 65 63 60 59 57 56 54 52 51 49 46 45 45 46 46 47 48 47 47 47 45 44 45 45 46 48 49 48 50 53 53 53 54 55 56 56 56 56 56 55 54 54 54 54 54 54 55
9 11 12 12 12 12 12 13 14 15 16 19 22 26 30 34 38 43 48 53 58 63 66 69 70 71 72 74 76 79 82 84 83 82 79 77 75 72 69 68 67 65 62 59 57 56 54 53 52 50 49 47 46 47 47 47 48 47 47 47 47 45 46 47 47 47 47 48 50 53 55 54 54 56 58 57 57 57 57 57 56 55 55 54 54 54 54 54
10 12 13 14 14 14 13 14 15 16 19 22 24 27 30 34 38 42 47 53 58 63 66 68 69 69 70 72 74 77 79 81 81 80 78 76 73 71 69 68 66 64 60 57 55 55 54 53 51 50 48 47 46 46 44 43 43 43 45 45 45 44 45 45 44 44 45 47 49 51 54 54 54 56 59 59 59 58 58 58 57 56 55 54 53 53 53 52
11 12 14 16 17 16 15 16 18 19 21 25 27 29 33 36 39 44 49 54 59 62 65 66 67 67 69 71 73 75 76 78 78 78 76 74 71 69 68 67 65 62 60 58 57 55 54 52 51 49 47 45 43 40 38 37 37 40 42 43 44 44 44 43 43 43 44 45 46 48 51 53 54 56 58 60 59 59 59 58 58 56 55 54 53 52 52 52
13 13 15 18 19 19 19 20 22 24 25 27 30 32 36 39 43 47 52 56 60 62 63 64 65 66 68 70 72 73 75 76 76 76 75 72 70 68 67 65 64 61 60 59 58 56 54 53 51 50 48 46 43 41 39 38 38 39 40 41 43 43 43 43 42 42 43 43 44 46 50 52 53 56 59 60 60 60 59 59 58 57 55 54 53 52 51 51
14 15 15 18 21 22 23 25 27 28 29 30 33 36 39 43 47 51 55 57 59 60 61 62 64 65 67 69 71 72 74 75 75 75 73 71 69 68 66 64 62 60 59 58 56 54 53 52 51 50 48 46 44 43 43 43 43 42 42 43 44 43 43 43 42 42 42 42 44 47 49 50 52 55 58 59 60 61 60 59 59 57 56 55 53 52 51 51
14 18 17 19 23 25 27 30 31 32 34 35 37 40 44 48 51 53 56 57 57 59 60 62 64 66 67 70 71 73 74 74 74 73 71 70 69 67 65 63 61 59 57 54 52 51 50 50 49 48 46 45 44 44 44 43 43 42 43 44 44 44 44 44 44 44 44 44 47 48 48 50 52 54 57 58 59 60 59 59 58 57 56 55 54 53 52 52
15 20 20 20 25 28 31 35 37 36 38 41 42 45 49 51 53 54 55 56 57 58 60 63 65 67 69 71 72 73 74 73 71 70 69 68 67 66 64 61 58 56 53 51 49 47 47 47 47 46 45 44 44 43 42 41 40 40 41 41 41 41 42 43 44 45 45 47 49 48 48 51 51 52 55 55 56 57 57 57 57 57 57 56 54 53 53 53
17 22 24 24 27 31 33 37 42 43 44 46 47 49 51 52 52 53 54 55 57 60 62 65 66 68 70 72 72 73 74 73 71 69 67 66 65 64 62 60 57 54 51 49 47 46 45 45 45 45 44 43 43 42 41 41 40 40 39 39 38 38 39 40 41 42 44 46 48 48 49 51 51 51 52 52 53 55 56 57 57 57 57 56 55 54 54 54
19 22 26 28 30 33 35 38 44 48 50 52 51 50 51 51 52 54 55 57 60 62 64 66 67 69 70 71 71 71 72 72 71 69 67 66 64 63 61 59 57 54 51 49 47 46 45 45 45 45 44 43 43 42 42 41 40 40 39 38 38 37 37 38 38 40 42 44 46 48 49 50 51 51 51 52 53 54 55 57 57 57 57 56 56 56 55 55
22 24 26 29 31 34 37 40 45 49 52 53 53 52 51 51 52 55 57 60 63 65 66 66 67 69 70 70 70 70 70 70 69 68 67 66 65 63 61 59 57 54 52 50 49 47 46 46 46 45 44 44 44 44 44 43 42 40 39 39 39 39 39 39 39 40 42 44 45 47 48 50 51 51 52 53 54 54 55 56 57 57 57 57 57 57 57 57
Wind_Direction
257 254 252 250 250 248 247 245 245 244 242 242 241 240 238 238 238 238 239 239 238 238 237 236 236 235 235 235 235 234 234 234 234 234 235 236 236 236 236 237 237 238 238 238 239 239 239 240 240 241 241 242 242 243 244 244 245 245 245 246 246 246 247 247 248 250 251 252 252 253 254 255 256 257 258 259 260 261 262 263 264 265 266 266 267 267 268 268
260 257 254 251 249 248 248 246 245 243 242 241 241 240 239 238 237 236 237 237 237 237 237 236 235 235 235 234 234 234 234 234 233 233 234 235 236 236 236 236 237 237 238 238 238 239 239 239 240 240 241 241 242 242 243 244 244 245 245 245 245 246 247 248 248 249 250 250 251 252 253 254 255 256 258 259 260 261 262 263 264 265 265 266 266 266 266 267
261 259 257 254 251 248 247 246 245 244 243 241 240 239 239 238 237 236 235 235 236 236 236 236 235 235 234 234 234 234 234 233 233 232 233 234 234 235 235 235 236 236 237 238 238 238 238 239 239 240 240 240 241 241 242 242 243 244 244 244 245 246 247 248 248 249 249 249 250 251 252 253 254 255 257 258 259 260 261 262 263 263 264 264 265 265 265 266
261 260 258 256 253 250 247 246 245 244 243 241 240 239 238 238 237 236 235 234 234 234 235 235 235 234 234 234 234 233 233 233 232 232 233 233 233 233 234 234 235 235 236 237 237 238 238 239 239 239 240 240 240 240 241 241 242 242 243 243 245 246 247 248 248 249 249 249 249 251 252 252 253 254 255 256 257 259 260 260 260 261 262 262 263 263 264 265
262 259 257 256 255 252 249 246 244 244 243 242 240 239 238 237 237 236 236 235 233 233 233 233 234 234 234 234 233 233 233 233 232 232 233 233 232 232 232 233 233 234 235 235 236 237 238 238 239 240 240 240 240 240 240 240 241 241 242 243 244 246 247 248 248 249 249 249 249 250 251 252 252 253 253 255 256 257 258 258 259 260 260 261 261 262 263 264
263 260 257 255 254 253 251 247 244 243 242 242 241 239 238 237 237 236 236 235 234 233 232 232 232 233 233 233 233 233 233 233 232 233 233 233 232 231 231 231 232 233 233 234 235 236 237 237 238 239 239 239 239 239 240 240 240 241 242 243 244 245 247 247 248 248 248 248 248 249 251 251 252 252 252 253 254 255 255 257 258 258 259 260 261 261 263 264
265 261 258 256 254 253 251 248 245 242 241 241 240 239 238 237 237 236 235 235 234 233 232 231 231 231 232 232 232 233 234 233 232 232 232 232 232 230 230 230 230 231 232 233 233 234 235 236 237 238 239 239 239 240 240 240 240 241 242 243 244 245 246 247 247 247 247 247 247 248 250 251 251 252 252 252 253 254 254 256 257 257 258 259 260 261 262 264
266 263 260 257 254 252 251 248 246 243 241 239 239 239 238 237 236 236 235 235 234 233 232 231 230 230 231 231 231 232 233 233 232 232 232 231 231 230 230 230 230 230 231 232 232 233 233 234 236 237 238 238 239 239 240 240 241 241 242 243 244 245 245 246 246 246 246 246 247 248 249 250 251 251 251 252 252 253 254 254 255 256 257 258 258 260 261 263
266 264 261 259 255 252 250 248 246 244 241 239 238 238 237 236 236 236 235 235 234 233 232 232 231 230 230 230 230 230 231 232 231 232 232 231 231 230 230 230 229 230 230 231 232 232 233 234 235 236 237 238 238 239 240 240 241 241 241 242 243 244 245 245 245 246 246 246 246 247 248 249 250 250 251 251 252 252 253 253 254 255 255 256 257 259 260 262
267 265 263 260 257 254 251 248 246 244 242 240 238 236 236 236 235 235 235 235 234 233 232 231 231 230 229 229 229 228 230 231 231 232 232 232 231 230 230 229 229 229 230 230 231 232 232 232 233 234 235 236 238 238 239 239 240 240 241 242 242 243 244 244 244 245 245 245 246 247 248 249 249 249 250 251 251 252 252 252 253 253 254 255 256 257 259 260
269 267 265 262 258 255 252 248 245 243 242 240 238 236 235 235 234 234 234 234 233 233 232 231 231 230 229 229 228 228 229 230 230 231 232 232 231 230 229 229 229 229 229 229 230 231 231 231 232 233 234 236 237 237 238 238 238 239 240 241 241 242 242 243 243 244 244 245 245 246 247 248 248 249 249 250 251 251 251 251 251 252 252 253 255 256 257 258
270 268 266 263 259 255 252 249 245 243 241 240 238 236 234 234 233 233 233 234 233 232 232 231 231 230 229 228 227 227 228 228 228 229 231 231 231 230 229 229 228 228 228 228 229 230 231 231 231 232 233 234 235 235 236 237 237 238 238 239 240 240 240 241 242 243 243 244 244 245 246 247 248 248 249 249 249 250 250 250 250 250 251 252 253 254 255 257
270 268 265 263 260 255 251 249 246 243 241 239 238 236 234 233 232 232 232 232 233 232 232 231 230 230 229 228 228 228 228 228 227 227 229 230 230 230 229 228 228 228 228 228 228 229 230 230 230 230 231 232 233 234 235 235 235 236 236 237 238 238 239 239 240 241 241 241 242 243 244 246 247 247 248 248 249 249 249 249 250 250 251 252 252 253 254 255
269 266 264 261 258 255 251 248 245 243 241 239 238 236 234 233 232 231 231 231 231 231 231 231 230 229 228 228 229 228 227 227 226 226 227 228 229 229 229 228 228 227 227 227 228 228 229 230 230 230 230 231 231 232 233 233 233 234 235 235 236 236 237 237 238 238 238 239 239 240 242 244 246 247 247 247 248 248 249 250 250 251 251 251 252 252 253 254
267 264 262 259 257 254 251 248 245 243 241 239 238 236 234 232 231 230 230 230 230 230 231 230 229 228 227 229 229 227 227 226 225 225 225 226 228 229 229 229 228 227 227 227 227 228 228 229 229 229 229 230 230 230 231 232 232 233 233 233 233 234 234 235 235 235 236 236 236 237 238 240 244 245 245 246 247 248 249 250 251 251 251 251 251 251 251 252
266 263 261 259 257 255 252 249 246 243 241 239 237 236 234 232 231 230 229 229 229 229 229 229 229 228 227 229 228 226 227 226 225 225 225 225 227 228 228 228 228 227 227 226 226 227 227 228 228 228 228 228 228 229 231 232 232 233 233 232 231 232 231 232 232 232 233 233 234 234 234 237 241 243 244 245 246 248 250 252 253 253 252 251 250 250 251 253
267 264 261 259 257 255 254 251 248 246 243 240 238 236 234 232 230 229 228 228 228 228 228 228 228 228 227 228 227 226 227 226 225 224 224 224 225 226 227 228 228 228 226 226 225 226 226 227 227 227 227 227 227 228 230 231 232 233 233 231 230 230 229 229 229 230 231 232 233 233 233 235 241 243 243 243 245 247 251 254 255 254 252 250 249 250 252 255
269 266 264 261 258 256 254 252 250 247 245 242 239 237 234 232 230 229 227 227 227 227 227 227 227 227 227 228 227 226 226 226 224 223 223 223 223 224 226 227 228 227 226 225 225 225 225 226 226 226 226 227 228 229 230 231 232 232 232 230 229 229 228 228 228 230 230 230 231 233 233 235 240 243 242 243 243 245 248 253 256 254 251 250 250 253 256 260
270 267 265 262 259 256 254 252 250 248 246 244 241 239 236 234 231 229 227 226 226 226 226 225 226 226 226 228 227 226 226 225 224 222 223 223 222 223 224 225 226 226 226 225 224 224 225 225 225 225 226 227 228 229 230 231 231 232 232 230 229 229 229 228 228 229 229 230 230 231 232 234 239 242 242 242 241 240 239 237 240 242 244 247 247 248 255 266
272 269 266 263 260 258 255 252 250 248 247 244 242 239 237 235 233 230 227 226 225 225 225 224 224 225 225 227 227 225 225 225 224 222 222 222 222 222 222 224 225 225 226 225 225 224 224 224 224 224 225 226 226 227 228 229 231 232 232 231 230 230 230 229 230 230 230 230 230 231 232 233 236 240 241 240 238 237 235 232 234 237 240 244 240 230 233 250
274 270 267 264 262 259 257 254 252 249 247 245 242 240 237 234 232 230 228 226 224 224 224 222 223 223 224 225 226 225 224 224 223 222 222 222 222 222 222 223 224 225 225 225 224 224 224 223 223 223 224 224 225 225 226 228 230 231 232 231 230 229 229 230 231 231 231 230 230 231 231 233 235 238 240 239 238 236 234 234 235 237 238 239 233 219 214 221
275 272 268 264 262 260 258 256 253 251 248 245 242 240 237 234 232 230 228 226 225 225 224 222 221 222 223 224 225 224 223 223 222 222 221 221 222 222 221 222 223 223 224 224 224 224 224 223 223 223 224 224 225 225 226 227 229 230 231 231 230 229 230 231 231 230 231 230 230 231 231 233 235 237 239 239 238 237 235 235 235 235 235 234 230 219 214 217
278 274 269 265 262 259 257 255 253 251 249 246 243 240 237 235 232 229 227 226 226 225 224 222 221 221 222 223 223 223 223 223 222 221 221 221 221 221 221 220 221 222 223 223 224 223 223 222 223 223 224 224 225 225 227 228 229 230 231 231 229 230 230 231 231 232 233 232 231 232 232 233 234 236 238 238 238 238 237 236 234 234 233 231 229 223 218 220
281 278 273 268 263 259 256 254 251 248 246 243 241 238 236 234 231 229 227 225 225 225 223 222 220 220 221 222 222 223 223 222 221 220 220 220 220 220 220 219 219 220 221 222 222 222 220 220 221 222 224 224 224 225 226 228 229 229 230 230 230 231 232 232 233 234 234 234 234 234 235 235 236 237 238 239 239 238 238 236 234 233 232 230 228 225 222 223
286 283 278 273 267 260 255 252 249 246 243 239 236 234 233 232 229 227 225 223 223 223 222 221 220 219 220 220 221 222 222 222 221 220 220 219 219 219 219 219 218 218 219 220 220 220 220 219 220 221 222 223 223 224 226 227 228 228 229 229 229 231 232 233 234 235 236 237 237 237 237 237 237 238 239 239 238 238 237 237 236 235 234 231 228 226 225 223
290 287 283 277 272 265 257 251 247 244 241 237 233 231 229 229 227 224 222 220 220 220 220 219 219 219 219 218 219 220 220 221 220 219 219 219 218 218 218 218 217 217 218 219 219 219 219 219 221 221 221 221 222 223 225 226 227 227 228 228 228 230 231 232 234 235 236 237 238 239 239 239 239 239 239 239 238 237 237 237 238 238 237 234 232 229 228 225
293 289 285 281 276 269 259 251 245 241 238 235 232 229 226 224 223 222 220 218 217 218 217 217 218 219 218 217 217 218 218 219 218 217 217 217 217 217 217 217 216 216 217 218 219 218 218 220 221 222 222 222 222 223 224 226 227 227 228 228 228 229 230 232 233 235 236 238 239 240 241 242 241 241 241 240 240 239 237 236 236 237 237 235 234 232 230 228
295 291 287 283 277 269 259 250 242 238 235 232 229 226 224 221 219 219 218 215 214 214 214 215 217 217 216 216 216 216 217 217 217 217 216 216 216 215 215 215 215 215 216 218 218 217 218 220 221 221 222 223 223 224 224 225 226 227 228 228 228 229 230 232 233 235 236 237 239 241 242 242 241 241 241 241 240 239 237 235 234 236 237 235 234 233 232 231
297 292 288 282 274 265 257 248 240 235 232 229 226 224 222 219 216 215 215 213 211 211 210 211 214 214 214 214 215 215 215 215 215 215 215 215 215 215 214 214 214 213 214 215 215 214 217 219 220 220 220 221 222 224 225 226 226 226 226 227 228 228 230 231 233 234 236 237 239 240 241 241 241 240 240 239 238 236 236 236 235 235 235 234 233 233 233 233
297 292 287 280 271 261 252 244 238 233 230 226 223 221 219 216 212 211 211 211 210 209 207 208 211 212 212 212 213 214 214 214 214 214 214 214 214 214 213 213 213 213 213 214 213 213 216 218 219 219 219 219 220 221 223 225 225 226 227 227 227 228 229 231 232 233 235 236 238 239 240 241 241 241 240 238 238 237 237 237 236 235 234 234 233 232 233 234
298 292 286 278 267 255 246 240 235 230 227 224 219 216 214 211 208 206 206 207 208 206 204 206 208 210 210 211 211 212 213 213 213 214 214 213 213 213 212 212 212 212 213 213 212 213 216 217 218 220 220 220 221 222 223 223 224 226 227 228 229 229 229 231 232 234 235 235 236 237 238 240 240 240 239 237 238 238 237 235 235 235 234 233 232 232 232 234
301 293 285 276 263 250 241 234 231 228 224 221 216 212 210 206 202 201 202 204 204 202 202 203 206 207 208 209 210 210 211 211 212 214 213 213 213 213 213 213 213 214 214 213 212 215 217 218 219 219 220 221 222 223 225 225 226 227 228 229 230 231 232 233 234 234 235 235 236 237 237 238 238 238 236 236 237 237 236 234 234 234 234 233 231 231 232 232
309 300 291 279 263 250 239 230 226 224 222 218 212 207 204 200 197 198 200 201 200 199 199 200 203 204 206 207 208 208 208 209 211 212 212 212 212 211 212 212 212 212 213 212 213 216 218 218 219 220 221 222 223 224 225 227 229 230 230 230 230 231 233 234 234 235 235 234 233 234 235 235 235 235 234 234 235 236 235 235 234 234 234 234 232 231 232 232
321 316 306 287 263 246 235 226 220 218 218 214 208 202 199 197 196 196 198 199 198 196 196 198 200 201 204 205 206 206 206 207 208 210 211 212 211 210 210 211 210 210 210 210 212 215 217 219 221 223 224 224 225 224 224 225 226 227 228 229 229 229 229 229 230 232 232 230 229 231 233 232 231 231 232 231 231 233 235 235 234 234 233 234 233 232 233 233
338 335 322 301 271 243 229 222 214 209 209 208 202 198 196 195 195 195 196 197 196 195 195 196 197 199 201 203 203 204 204 205 207 207 209 210 211 211 210 210 210 210 210 209 211 213 214 216 218 220 222 223 223 223 224 224 225 224 225 225 227 228 228 228 228 228 228 227 227 230 231 230 228 228 230 231 231 232 233 235 234 233 233 233 233 234 234 235
350 348 338 319 288 250 229 221 214 206 202 201 197 193 192 193 194 194 195 195 194 194 194 195 195 197 199 201 201 201 202 204 205 206 207 207 208 209 209 209 209 209 209 209 210 212 212 213 214 216 218 220 220 221 222 223 224 225 226 226 226 226 226 228 228 226 225 224 226 229 229 228 227 227 229 231 232 232 232 233 233 233 232 232 233 234 235 236
357 1 356 336 303 252 225 218 216 209 202 199 196 192 191 192 193 193 193 193 193 193 193 194 194 195 196 198 199 200 201 202 204 205 206 206 206 206 207 208 207 206 207 208 210 212 212 212 214 215 215 216 217 218 220 221 222 223 224 226 227 225 224 224 225 224 224 224 224 227 228 227 227 228 229 229 230 231 231 232 233 233 232 232 233 235 236 238
9 17 13 359 330 237 203 203 209 209 203 199 197 196 193 192 192 191 190 191 191 192 192 192 192 193 194 196 197 198 199 201 202 203 204 205 205 205 206 206 205 205 206 206 208 210 210 211 213 214 215 215 215 217 219 221 222 222 222 222 223 223 223 225 225 224 224 224 223 224 225 225 226 226 227 228 228 229 231 232 232 233 233 233 234 236 238 239
24 30 29 25 24 132 155 176 193 201 204 200 197 198 197 192 189 189 188 189 190 190 190 190 190 191 192 193 195 197 198 200 201 202 203 203 204 205 205 204 204 204 204 205 207 208 209 211 213 214 215 216 216 218 220 221 221 222 223 222 221 221 222 224 224 223 223 223 221 222 223 223 223 224 226 228 229 230 232 233 233 235 235 235 236 238 239 241
36 44 48 61 80 112 129 148 168 182 194 195 193 194 194 189 187 186 187 187 188 189 189 188 188 189 189 191 193 195 196 198 199 201 202 202 202 203 204 203 203 203 204 205 207 208 208 210 213 214 216 217 218 220 220 220 220 221 221 222 223 223 222 223 223 223 224 222 220 221 222 222 221 222 226 229 231 232 233 234 235 236 237 238 238 240 241 243
46 58 69 86 100 116 127 139 151 163 176 180 181 184 185 185 184 184 185 185 185 186 186 186 186 186 187 189 191 193 194 196 198 199 200 201 201 202 202 202 202 203 205 206 207 208 208 210 212 213 215 216 217 218 219 219 219 219 218 218 219 218 219 221 221 221 222 221 219 219 220 221 220 221 225 228 231 232 233 234 235 237 238 239 241 242 243 245
46 69 80 90 100 111 120 129 140 151 165 171 173 175 178 180 181 182 183 184 182 182 182 183 183 184 185 187 189 191 192 194 196 197 198 200 201 201 200 200 201 202 204 205 207 208 209 210 212 212 213 213 213 216 217 218 218 218 217 216 215 213 212 215 216 216 218 218 216 216 219 220 219 220 224 228 230 232 234 236 237 239 240 242 243 244 245 247
42 72 84 91 98 106 115 126 136 146 157 162 164 167 171 175 177 178 180 181 179 178 178 179 180 181 184 185 187 189 190 192 193 194 195 198 200 199 198 198 199 201 203 205 207 208 208 210 212 212 213 211 211 213 214 215 217 217 217 218 218 216 214 214 214 214 216 216 215 216 217 219 219 221 224 228 231 234 236 238 240 241 243 244 245 247 248 249
47 73 87 93 97 103 113 123 131 140 150 153 156 160 164 168 172 173 175 176 175 174 175 176 177 179 181 183 185 186 188 189 190 192 193 195 197 198 198 198 198 200 202 204 206 208 208 210 211 213 214 213 214 215 216 218 218 218 218 218 219 219 218 219 217 217 218 218 217 218 220 220 221 223 226 229 232 235 237 240 242 243 244 246 247 249 250 252
54 75 88 95 98 103 110 119 127 134 141 144 148 154 158 162 166 168 170 170 170 171 172 174 175 177 179 181 182 183 184 186 187 189 192 193 195 196 197 197 199 200 201 202 205 206 208 209 210 212 213 214 216 218 219 222 222 221 220 220 221 221 220 221 220 220 222 222 221 222 222 223 224 225 229 232 234 236 238 240 243 244 246 247 248 250 252 253
61 76 89 100 103 107 113 120 125 128 133 139 144 151 155 158 161 164 165 166 166 168 170 172 173 175 177 178 178 179 181 183 186 188 190 191 193 195 196 197 199 200 201 203 204 205 206 207 209 211 212 212 212 212 213 216 218 219 221 222 223 222 222 223 221 221 223 223 224 224 224 225 225 226 229 232 234 237 238 240 243 244 246 247 249 251 253 255
71 80 89 102 108 111 117 121 123 126 132 138 144 149 153 155 157 160 161 163 165 167 169 170 171 173 175 175 175 177 179 182 185 187 189 190 192 193 195 197 199 201 203 204 206 207 207 208 209 211 212 212 212 212 212 212 213 214 216 217 219 220 220 221 221 221 222 222 224 225 224 225 225 227 229 232 234 237 238 240 243 245 247 248 250 253 255 257
81 89 93 106 112 115 121 123 125 129 134 138 144 148 150 152 155 157 159 161 164 166 167 169 170 171 172 173 173 176 180 183 185 187 189 190 191 193 195 196 199 201 203 205 208 209 210 210 211 212 213 213 214 215 215 216 216 215 216 217 217 218 218 218 219 219 219 221 223 225 225 226 226 227 229 231 234 237 239 241 244 246 248 249 251 253 256 257
91 98 101 112 118 120 126 128 129 132 136 139 144 147 148 151 153 156 158 160 162 164 165 167 168 170 171 172 174 177 180 182 185 187 189 191 192 194 195 197 199 202 204 205 208 210 211 212 213 214 214 214 216 217 218 219 220 220 221 221 221 221 220 220 220 220 219 221 223 224 226 228 228 229 231 232 234 238 240 242 244 246 248 250 251 254 256 257
97 105 109 117 122 125 130 133 133 134 138 140 143 146 148 150 153 156 158 160 161 162 164 166 168 170 172 173 176 180 181 182 184 187 189 192 194 195 196 197 200 202 203 204 207 209 210 212 214 215 215 216 217 219 220 220 221 222 223 225 225 225 225 224 224 224 223 224 226 226 227 230 230 231 233 234 235 237 240 242 243 245 247 250 251 253 255 256
100 108 115 120 125 129 132 135 136 138 140 142 144 147 149 151 154 156 158 159 160 162 165 168 170 172 174 176 179 182 183 184 185 187 189 191 194 195 197 198 200 201 202 203 205 208 209 210 213 214 215 216 218 219 220 221 221 222 224 225 226 226 226 227 227 227 227 227 229 229 230 232 233 233 234 235 236 237 239 242 243 245 247 250 252 254 255 257
105 110 117 122 128 132 135 138 140 141 143 144 145 148 150 152 155 156 157 159 161 164 167 170 172 174 176 178 181 184 186 187 188 189 191 192 194 196 197 199 200 201 202 203 205 207 208 210 212 213 214 216 218 219 220 221 221 221 222 224 225 225 225 226 226 227 228 228 229 231 231 233 234 234 234 236 237 238 239 242 244 246 248 251 253 256 257 259
Height
10592 10592 10593 10594 10595 10596 10598 10599 10600 10602 10604 10607 10609 10612 10615 10617 10620 10623 10626 10629 10633 10636 10640 10643 10648 10652 10656 10660 10663 10665 10668 10673 10677 10683 10685 10683 10688 10698 10705 10708 10712 10717 10721 10724 10728 10732 10735 10739 10742 10745 10748 10752 10756 10760 10763 10766 10769 10772 10775 10778 10780 10781 10782 10785 10789 10795 10801 10806 10806 10804 10805 10808 10809 10809 10811 10812 10813 10816 10817 10818 10819 10821 10823 10823 10823 10824 10825 10827
10582 10582 10582 10582 10584 10585 10587 10588 10590 10592 10594 10597 10600 10603 10605 10608 10611 10614 10617 10620 10624 10627 10631 10635 10639 10644 10648 10651 10654 10656 10661 10666 10671 10676 10675 10676 10685 10692 10696 10701 10705 10710 10713 10716 10720 10724 10728 10732 10735 10739 10742 10746 10750 10754 10758 10761 10764 10766 10769 10771 10773 10774 10776 10781 10787 10793 10798 10801 10801 10799 10800 10804 10805 10805 10807 10807 10809 10811 10813 10814 10815 10817 10818 10818 10818 10819 10820 10822
10572 10572 10571 10571 10572 10573 10575 10577 10579 10581 10583 10586 10590 10592 10595 10598 10602 10605 10608 10611 10615 10618 10623 10627 10631 10635 10639 10642 10645 10648 10654 10659 10664 10667 10667 10671 10679 10682 10688 10694 10698 10702 10705 10708 10712 10717 10721 10725 10728 10732 10736 10739 10744 10748 10752 10755 10757 10760 10763 10765 10767 10769 10771 10777 10783 10789 10794 10796 10795 10794 10795 10799 10801 10801 10802 10803 10805 10807 10809 10810 10810 10812 10812 10813 10813 10813 10815 10817
10561 10561 10560 10560 10560 10561 10562 10564 10567 10569 10572 10575 10578 10582 10585 10588 10592 10596 10599 10603 10606 10610 10614 10618 10622 10627 10630 10633 10636 10641 10647 10651 10656 10660 10661 10665 10670 10675 10682 10687 10691 10694 10697 10701 10705 10709 10714 10718 10721 10725 10729 10733 10738 10742 10746 10749 10751 10754 10757 10758 10761 10763 10766 10773 10780 10785 10789 10790 10790 10789 10790 10794 10796 10798 10798 10799 10801 10802 10804 10805 10806 10807 10808 10808 10809 10809 10810 10812
10549 10549 10548 10548 10548 10549 10550 10551 10554 10557 10560 10563 10566 10571 10574 10578 10582 10586 10589 10593 10597 10601 10605 10610 10614 10618 10622 10625 10629 10635 10638 10643 10650 10653 10654 10657 10662 10670 10676 10680 10684 10686 10690 10694 10698 10703 10708 10711 10715 10719 10723 10727 10731 10735 10739 10741 10745 10748 10750 10754 10757 10757 10762 10771 10776 10781 10784 10785 10785 10783 10785 10789 10792 10793 10794 10794 10797 10798 10799 10800 10802 10803 10803 10804 10804 10804 10805 10807
10536 10536 10536 10536 10536 10537 10537 10538 10540 10543 10547 10550 10554 10559 10563 10568 10572 10576 10580 10583 10588 10592 10597 10601 10605 10610 10613 10616 10622 10628 10630 10636 10644 10645 10646 10650 10656 10665 10669 10673 10677 10679 10683 10688 10693 10697 10701 10705 10709 10712 10715 10720 10724 10728 10732 10735 10739 10742 10745 10750 10751 10753 10760 10767 10771 10776 10778 10780 10780 10778 10780 10784 10786 10788 10789 10790 10792 10794 10794 10795 10797 10798 10798 10799 10800 10800 10801 10804
10523 10523 10523 10523 10523 10524 10524 10525 10526 10529 10533 10537 10541 10546 10551 10556 10560 10566 10569 10573 10579 10583 10588 10593 10597 10601 10603 10609 10615 10621 10624 10630 10636 10634 10636 10642 10649 10658 10662 10665 10670 10673 10678 10683 10687 10690 10694 10698 10702 10705 10708 10713 10717 10722 10726 10729 10733 10737 10741 10745 10745 10749 10757 10762 10766 10769 10772 10774 10774 10773 10775 10778 10781 10783 10785 10786 10787 10789 10790 10792 10793 10793 10794 10795 10796 10796 10797 10800
10509 10509 10509 10509 10509 10510 10511 10511 10512 10515 10518 10523 10528 10533 10538 10543 10549 10555 10559 10564 10569 10574 10580 10584 10589 10592 10595 10601 10608 10614 10618 10621 10624 10624 10628 10635 10642 10650 10654 10658 10663 10668 10672 10677 10680 10683 10688 10692 10696 10698 10703 10708 10712 10716 10721 10724 10729 10733 10736 10738 10740 10745 10752 10757 10760 10762 10766 10768 10769 10768 10769 10773 10776 10777 10779 10780 10782 10784 10786 10788 10788 10788 10790 10791 10791 10792 10793 10796
10495 10494 10494 10494 10494 10495 10497 10497 10499 10501 10504 10508 10513 10519 10525 10531 10537 10543 10549 10554 10559 10565 10570 10576 10580 10582 10587 10594 10600 10607 10609 10609 10614 10618 10621 10629 10636 10642 10647 10651 10657 10662 10666 10670 10674 10678 10683 10688 10690 10693 10698 10703 10707 10712 10716 10720 10724 10728 10730 10732 10735 10740 10747 10751 10753 10756 10760 10762 10763 10763 10764 10768 10770 10772 10773 10775 10777 10779 10782 10783 10784 10784 10785 10787 10787 10788 10790 10792
10480 10479 10479 10479 10479 10480 10481 10483 10485 10486 10490 10494 10499 10505 10511 10518 10525 10531 10537 10542 10549 10555 10560 10567 10571 10574 10580 10586 10592 10600 10598 10598 10608 10612 10616 10623 10629 10635 10640 10645 10651 10655 10659 10664 10668 10673 10677 10680 10683 10688 10693 10698 10703 10709 10712 10715 10720 10722 10724 10726 10730 10736 10742 10744 10746 10750 10754 10756 10758 10758 10759 10762 10764 10766 10768 10771 10773 10775 10777 10778 10779 10780 10781 10782 10784 10785 10786 10788
10465 10464 10463 10463 10464 10465 10465 10468 10470 10472 10475 10479 10485 10491 10497 10505 10512 10519 10525 10530 10538 10545 10551 10557 10561 10567 10573 10578 10587 10590 10585 10590 10602 10606 10610 10616 10621 10627 10632 10638 10644 10648 10653 10658 10662 10665 10669 10673 10680 10685 10690 10695 10700 10704 10707 10711 10714 10715 10718 10721 10725 10732 10735 10737 10740 10744 10747 10750 10752 10753 10755 10756 10758 10760 10762 10766 10767 10770 10772 10773 10774 10776 10777 10778 10780 10781 10782 10784
10451 10449 10447 10446 10447 10449 10450 10451 10454 10457 10461 10465 10470 10476 10483 10491 10498 10506 10513 10519 10526 10535 10541 10546 10553 10559 10565 10574 10579 10575 10575 10586 10596 10600 10604 10608 10613 10619 10624 10631 10636 10640 10645 10650 10654 10658 10663 10670 10676 10680 10686 10691 10694 10699 10703 10707 10708 10710 10713 10716 10721 10726 10729 10730 10734 10738 10742 10744 10746 10748 10748 10750 10753 10754 10756 10760 10762 10764 10766 10767 10769 10771 10772 10775 10776 10777 10778 10780
10435 10433 10432 10431 10430 10433 10435 10436 10439 10442 10446 10451 10456 10462 10469 10476 10484 10493 10501 10507 10514 10524 10530 10536 10545 10551 10559 10567 10564 10563 10572 10581 10587 10591 10596 10600 10605 10611 10617 10623 10627 10631 10637 10642 10647 10653 10659 10666 10670 10677 10683 10686 10690 10697 10699 10701 10703 10705 10709 10712 10717 10721 10723 10725 10729 10733 10736 10738 10741 10742 10743 10745 10748 10748 10751 10755 10756 10759 10761 10762 10765 10767 10769 10771 10772 10773 10775 10776
10420 10418 10417 10416 10415 10416 10420 10422 10424 10427 10432 10437 10442 10448 10455 10462 10470 10479 10488 10495 10503 10513 10519 10527 10536 10542 10553 10555 10550 10558 10567 10570 10576 10582 10586 10592 10598 10604 10610 10615 10619 10624 10630 10636 10643 10649 10655 10661 10666 10673 10678 10682 10688 10692 10693 10696 10698 10701 10705 10709 10714 10716 10718 10721 10724 10728 10730 10732 10736 10737 10739 10742 10742 10742 10747 10750 10752 10754 10756 10758 10761 10763 10765 10767 10768 10770 10771 10772
10406 10404 10402 10402 10402 10402 10405 10408 10410 10413 10417 10422 10428 10433 10440 10448 10456 10465 10475 10483 10491 10501 10508 10517 10526 10534 10544 10541 10540 10553 10556 10558 10567 10573 10580 10587 10592 10598 10604 10608 10612 10617 10623 10631 10639 10644 10650 10655 10661 10668 10674 10679 10684 10686 10689 10692 10694 10697 10701 10706 10709 10711 10714 10716 10719 10723 10724 10727 10730 10732 10737 10739 10736 10738 10743 10746 10748 10750 10752 10755 10758 10760 10761 10763 10764 10766 10767 10769
10392 10391 10390 10389 10389 10389 10391 10394 10397 10400 10403 10408 10413 10419 10426 10434 10442 10451 10462 10470 10479 10488 10497 10507 10516 10525 10532 10528 10532 10545 10545 10549 10560 10569 10577 10581 10586 10592 10596 10601 10605 10611 10618 10626 10633 10638 10643 10649 10657 10664 10669 10674 10678 10682 10685 10687 10691 10695 10698 10702 10704 10706 10709 10711 10714 10717 10719 10722 10726 10728 10734 10736 10733 10735 10740 10742 10745 10748 10750 10753 10755 10756 10757 10759 10761 10762 10763 10766
10379 10378 10376 10376 10376 10376 10377 10380 10383 10386 10390 10394 10400 10406 10412 10420 10429 10438 10448 10458 10467 10475 10486 10497 10504 10513 10519 10516 10523 10535 10536 10543 10556 10565 10569 10572 10579 10585 10589 10595 10599 10605 10613 10619 10626 10631 10637 10645 10653 10659 10663 10668 10673 10677 10681 10685 10689 10691 10693 10696 10698 10700 10702 10705 10709 10713 10715 10718 10722 10725 10730 10732 10730 10731 10735 10739 10743 10746 10749 10752 10753 10752 10753 10755 10756 10758 10761 10763
10366 10364 10362 10362 10362 10363 10364 10365 10368 10372 10377 10381 10387 10393 10400 10407 10415 10425 10436 10446 10454 10463 10474 10485 10492 10500 10505 10505 10514 10525 10529 10538 10549 10556 10560 10565 10572 10576 10582 10588 10593 10600 10606 10612 10620 10626 10633 10640 10646 10652 10658 10665 10671 10675 10678 10681 10683 10684 10686 10688 10691 10693 10696 10701 10706 10709 10711 10715 10718 10721 10725 10728 10727 10728 10731 10736 10741 10745 10750 10754 10752 10747 10748 10750 10753 10757 10760 10762
10353 10350 10348 10347 10347 10348 10349 10350 10353 10357 10362 10368 10374 10381 10388 10395 10403 10413 10424 10434 10443 10451 10462 10473 10480 10488 10494 10498 10507 10516 10522 10531 10540 10546 10551 10557 10563 10569 10575 10581 10587 10593 10599 10607 10615 10621 10628 10634 10640 10650 10658 10664 10668 10670 10671 10673 10676 10676 10678 10681 10686 10690 10694 10700 10703 10704 10707 10711 10715 10718 10721 10724 10724 10724 10728 10733 10738 10742 10746 10750 10745 10738 10740 10746 10752 10757 10761 10763
10339 10336 10334 10332 10332 10333 10334 10336 10338 10342 10347 10353 10360 10368 10376 10383 10391 10401 10410 10421 10431 10437 10447 10459 10467 10476 10484 10489 10497 10507 10515 10523 10531 10539 10545 10551 10557 10562 10569 10575 10581 10588 10595 10603 10609 10616 10622 10628 10638 10649 10653 10656 10658 10660 10662 10666 10668 10668 10672 10679 10684 10688 10693 10697 10699 10701 10705 10708 10711 10714 10717 10719 10719 10721 10725 10729 10733 10736 10739 10740 10735 10733 10740 10745 10748 10753 10759 10764
10325 10323 10321 10319 10319 10319 10320 10321 10324 10328 10333 10338 10346 10354 10362 10369 10377 10387 10397 10408 10415 10420 10432 10446 10455 10465 10473 10477 10485 10496 10507 10515 10524 10532 10539 10545 10550 10556 10564 10570 10577 10586 10592 10598 10604 10609 10615 10625 10636 10641 10643 10646 10649 10652 10656 10659 10659 10663 10669 10675 10679 10684 10689 10692 10694 10697 10701 10704 10707 10710 10713 10715 10715 10717 10721 10724 10727 10729 10731 10732 10731 10734 10739 10740 10743 10746 10749 10751
10312 10310 10310 10308 10308 10307 10308 10309 10311 10315 10319 10325 10332 10339 10346 10354 10363 10374 10384 10393 10402 10409 10422 10436 10446 10454 10460 10466 10475 10487 10498 10507 10516 10525 10532 10538 10544 10552 10559 10566 10575 10581 10586 10593 10599 10604 10613 10624 10629 10632 10637 10641 10644 10647 10650 10652 10655 10660 10666 10670 10675 10680 10684 10686 10689 10693 10696 10699 10703 10706 10709 10711 10712 10715 10717 10720 10722 10723 10724 10725 10727 10730 10733 10734 10737 10739 10739 10739
10300 10299 10299 10298 10298 10297 10297 10298 10300 10303 10307 10312 10319 10325 10332 10340 10351 10361 10371 10382 10392 10400 10413 10425 10436 10443 10448 10456 10467 10479 10490 10498 10508 10518 10526 10533 10539 10546 10554 10562 10569 10575 10582 10590 10595 10601 10611 10618 10621 10626 10631 10633 10637 10642 10645 10648 10652 10657 10661 10666 10671 10675 10678 10682 10686 10689 10691 10695 10698 10702 10704 10707 10709 10711 10713 10715 10717 10718 10719 10721 10723 10725 10727 10729 10730 10733 10735 10735
10289 10288 10287 10287 10287 10287 10287 10288 10289 10293 10296 10302 10307 10312 10318 10327 10338 10349 10360 10372 10381 10390 10403 10414 10424 10431 10438 10448 10460 10472 10481 10490 10502 10512 10520 10527 10533 10541 10550 10556 10563 10571 10580 10584 10589 10596 10603 10608 10614 10618 10620 10624 10631 10636 10640 10644 10647 10652 10656 10661 10667 10671 10675 10679 10682 10684 10687 10690 10694 10698 10700 10703 10706 10708 10710 10712 10713 10715 10715 10716 10718 10719 10721 10723 10725 10727 10729 10731
10280 10278 10277 10276 10276 10277 10278 10278 10280 10283 10286 10291 10295 10300 10307 10315 10325 10336 10346 10358 10369 10379 10391 10403 10414 10419 10427 10441 10454 10463 10473 10484 10497 10507 10514 10521 10528 10536 10543 10550 10559 10567 10572 10577 10583 10589 10595 10602 10605 10605 10610 10619 10625 10630 10634 10638 10641 10646 10650 10656 10663 10667 10670 10674 10676 10679 10683 10687 10690 10693 10696 10699 10702 10704 10706 10707 10708 10710 10711 10712 10713 10715 10716 10718 10720 10722 10723 10726
10271 10269 10267 10267 10267 10267 10268 10269 10271 10273 10277 10281 10286 10292 10298 10304 10313 10323 10333 10345 10356 10367 10380 10394 10402 10406 10419 10436 10446 10454 10465 10477 10489 10499 10507 10515 10523 10530 10537 10546 10554 10560 10565 10571 10576 10583 10592 10596 10595 10598 10606 10613 10618 10624 10628 10632 10636 10640 10644 10651 10658 10661 10664 10668 10671 10675 10679 10682 10686 10688 10692 10695 10699 10700 10701 10702 10704 10706 10707 10708 10709 10710 10712 10714 10716 10717 10719 10721
10262 10260 10259 10259 10259 10259 10260 10261 10263 10265 10268 10273 10278 10284 10289 10295 10303 10312 10322 10333 10345 10357 10371 10384 10390 10398 10415 10429 10434 10443 10455 10467 10479 10490 10500 10508 10516 10525 10533 10540 10547 10554 10561 10566 10571 10581 10588 10587 10589 10596 10602 10608 10614 10619 10623 10626 10630 10634 10640 10646 10652 10655 10659 10663 10667 10672 10675 10678 10681 10685 10689 10692 10695 10696 10697 10698 10700 10702 10704 10705 10705 10706 10707 10709 10712 10713 10715 10716
10255 10254 10253 10252 10252 10252 10253 10254 10256 10257 10261 10265 10270 10275 10281 10287 10295 10303 10312 10323 10335 10345 10359 10371 10379 10392 10408 10417 10424 10436 10449 10462 10473 10483 10492 10499 10508 10518 10525 10533 10541 10550 10556 10561 10569 10578 10580 10580 10585 10592 10597 10604 10610 10614 10617 10620 10623 10629 10634 10639 10645 10650 10655 10659 10664 10668 10671 10674 10677 10682 10685 10687 10689 10691 10692 10694 10696 10698 10699 10700 10701 10702 10703 10705 10707 10709 10711 10711
10250 10248 10247 10247 10246 10246 10247 10248 10250 10252 10255 10259 10263 10268 10274 10281 10289 10296 10304 10315 10324 10333 10347 10360 10369 10382 10396 10406 10418 10431 10442 10452 10463 10474 10483 10493 10503 10511 10519 10528 10536 10542 10548 10553 10562 10569 10571 10574 10579 10584 10590 10597 10602 10607 10610 10612 10618 10624 10627 10633 10640 10646 10651 10656 10661 10664 10666 10670 10674 10678 10680 10681 10684 10686 10688 10689 10690 10692 10694 10695 10698 10699 10699 10700 10703 10705 10707 10707
10246 10244 10243 10243 10242 10242 10242 10243 10245 10247 10250 10254 10258 10263 10269 10275 10282 10290 10300 10310 10317 10326 10341 10352 10361 10374 10388 10399 10411 10422 10431 10444 10457 10467 10476 10487 10496 10504 10514 10524 10530 10535 10540 10546 10556 10563 10565 10567 10572 10577 10584 10590 10594 10598 10600 10606 10614 10618 10621 10628 10635 10641 10647 10652 10656 10659 10662 10667 10671 10673 10675 10676 10679 10682 10683 10684 10684 10687 10690 10692 10693 10694 10695 10696 10699 10701 10703 10703
10242 10241 10240 10239 10239 10239 10239 10240 10242 10243 10246 10250 10254 10258 10264 10270 10278 10288 10296 10301 10308 10320 10334 10344 10354 10368 10383 10395 10405 10414 10426 10441 10453 10461 10470 10481 10489 10498 10510 10517 10522 10528 10533 10544 10556 10559 10558 10562 10569 10575 10582 10587 10589 10591 10596 10604 10610 10613 10618 10626 10631 10638 10644 10648 10653 10656 10660 10664 10667 10668 10670 10671 10674 10677 10678 10677 10679 10683 10685 10686 10688 10689 10691 10693 10695 10697 10698 10700
10239 10238 10237 10236 10236 10236 10236 10237 10238 10241 10243 10246 10250 10255 10260 10268 10277 10283 10287 10291 10300 10314 10327 10337 10348 10363 10376 10386 10395 10408 10424 10438 10448 10457 10469 10480 10488 10499 10509 10515 10521 10529 10536 10547 10554 10553 10554 10562 10568 10573 10578 10581 10584 10589 10597 10603 10606 10609 10616 10624 10630 10635 10640 10646 10651 10654 10657 10661 10663 10664 10665 10667 10670 10672 10673 10673 10675 10678 10679 10680 10683 10685 10687 10688 10690 10692 10693 10694
10237 10236 10235 10234 10234 10234 10234 10235 10236 10238 10241 10244 10248 10252 10258 10264 10270 10274 10278 10286 10296 10307 10318 10329 10341 10355 10366 10374 10386 10401 10416 10430 10441 10453 10464 10473 10483 10494 10502 10509 10519 10527 10535 10545 10548 10548 10554 10561 10565 10570 10574 10578 10583 10590 10597 10602 10606 10610 10616 10622 10627 10632 10638 10644 10648 10650 10652 10657 10659 10658 10658 10662 10666 10667 10668 10669 10670 10672 10673 10675 10678 10680 10682 10684 10685 10686 10687 10688
10236 10234 10233 10232 10232 10232 10232 10233 10234 10236 10239 10242 10246 10250 10254 10259 10263 10268 10275 10283 10291 10301 10311 10321 10332 10345 10356 10368 10383 10398 10412 10424 10435 10447 10458 10467 10477 10486 10495 10505 10515 10521 10528 10537 10542 10547 10554 10560 10565 10569 10573 10578 10583 10588 10593 10596 10600 10604 10610 10616 10621 10626 10632 10636 10640 10643 10647 10652 10652 10650 10654 10660 10662 10662 10662 10664 10665 10666 10668 10670 10673 10675 10677 10678 10680 10681 10681 10682
10234 10233 10232 10232 10231 10231 10231 10231 10232 10234 10237 10240 10244 10248 10252 10256 10261 10267 10273 10279 10288 10297 10305 10314 10326 10339 10350 10362 10377 10392 10407 10419 10429 10441 10453 10465 10476 10486 10496 10505 10512 10519 10527 10534 10539 10544 10550 10556 10560 10565 10570 10575 10579 10583 10587 10589 10592 10596 10603 10609 10615 10620 10626 10630 10634 10637 10641 10645 10645 10646 10651 10656 10657 10656 10656 10658 10660 10661 10663 10665 10666 10669 10671 10673 10674 10675 10675 10675
10234 10232 10232 10231 10231 10231 10231 10231 10232 10233 10235 10238 10241 10246 10250 10254 10259 10264 10269 10277 10286 10294 10301 10311 10322 10333 10346 10359 10374 10388 10403 10415 10427 10439 10450 10460 10471 10482 10492 10500 10508 10517 10525 10531 10536 10540 10545 10550 10554 10559 10564 10568 10572 10578 10581 10583 10588 10594 10601 10606 10611 10617 10623 10626 10629 10632 10636 10639 10640 10643 10648 10650 10651 10651 10651 10653 10655 10657 10659 10659 10660 10663 10666 10669 10669 10669 10669 10669
10233 10232 10231 10231 10231 10231 10231 10232 10233 10234 10236 10238 10241 10244 10246 10250 10255 10261 10269 10277 10285 10293 10301 10311 10322 10333 10345 10359 10374 10388 10401 10412 10424 10436 10446 10455 10466 10476 10487 10496 10506 10514 10520 10526 10532 10536 10542 10548 10551 10554 10557 10561 10567 10572 10574 10577 10584 10592 10598 10603 10608 10614 10619 10620 10622 10627 10631 10634 10637 10640 10644 10646 10647 10647 10647 10648 10649 10651 10652 10653 10655 10658 10661 10663 10663 10663 10664 10665
10234 10232 10231 10231 10231 10231 10232 10232 10234 10235 10237 10239 10241 10244 10246 10249 10255 10262 10270 10278 10285 10293 10302 10311 10323 10334 10346 10360 10374 10387 10399 10410 10422 10433 10444 10455 10466 10476 10486 10495 10503 10509 10515 10523 10528 10531 10538 10543 10544 10548 10553 10557 10562 10566 10569 10577 10585 10590 10593 10598 10605 10610 10613 10615 10620 10625 10628 10630 10634 10636 10639 10642 10644 10643 10642 10641 10642 10644 10646 10648 10651 10653 10655 10658 10658 10659 10660 10661
10234 10232 10232 10232 10231 10231 10232 10233 10235 10237 10239 10241 10243 10246 10249 10253 10258 10265 10271 10278 10285 10293 10302 10312 10322 10334 10347 10360 10373 10386 10398 10411 10423 10434 10443 10455 10466 10475 10484 10492 10499 10505 10513 10518 10522 10527 10533 10537 10539 10545 10550 10554 10559 10564 10570 10577 10582 10585 10590 10597 10601 10605 10609 10613 10618 10621 10622 10626 10629 10632 10635 10638 10640 10638 10635 10634 10637 10639 10641 10644 10646 10648 10651 10653 10654 10655 10656 10657
10234 10233 10232 10232 10231 10232 10232 10234 10235 10238 10240 10243 10246 10250 10254 10258 10262 10267 10272 10279 10286 10294 10303 10313 10323 10335 10348 10360 10372 10384 10397 10410 10423 10434 10444 10454 10464 10472 10481 10489 10496 10503 10509 10513 10518 10524 10529 10533 10538 10544 10549 10554 10561 10567 10571 10574 10578 10583 10590 10595 10598 10603 10608 10611 10614 10617 10619 10622 10625 10628 10631 10633 10635 10633 10630 10629 10632 10634 10636 10639 10641 10644 10646 10648 10649 10650 10651 10653
10235 10233 10233 10232 10232 10232 10233 10234 10236 10238 10241 10244 10247 10251 10255 10260 10264 10269 10275 10281 10288 10297 10308 10318 10327 10338 10350 10361 10373 10385 10398 10411 10423 10433 10444 10454 10462 10471 10481 10488 10494 10501 10505 10511 10517 10522 10526 10531 10536 10542 10548 10554 10560 10563 10566 10570 10575 10580 10585 10589 10592 10598 10602 10605 10609 10613 10614 10617 10621 10625 10626 10627 10629 10628 10625 10625 10626 10628 10630 10633 10636 10639 10641 10642 10644 10645 10647 10648
10238 10236 10235 10234 10234 10235 10235 10237 10238 10241 10243 10246 10249 10253 10257 10262 10267 10272 10279 10285 10293 10302 10312 10323 10333 10344 10353 10363 10374 10387 10399 10410 10422 10434 10445 10454 10462 10472 10480 10485 10492 10497 10503 10510 10515 10519 10525 10530 10535 10540 10545 10550 10555 10558 10562 10567 10571 10575 10579 10582 10586 10590 10594 10598 10601 10605 10607 10612 10617 10619 10619 10621 10624 10624 10621 10620 10620 10623 10625 10628 10631 10634 10636 10638 10639 10640 10642 10642
10241 10239 10238 10237 10237 10238 10239 10240 10241 10244 10246 10250 10253 10256 10260 10265 10271 10276 10283 10290 10298 10306 10316 10326 10337 10347 10356 10365 10376 10388 10398 10409 10421 10433 10443 10451 10460 10468 10475 10480 10487 10494 10500 10507 10512 10517 10523 10527 10532 10536 10541 10546 10550 10552 10557 10562 10565 10570 10575 10579 10583 10588 10591 10593 10596 10600 10603 10607 10611 10612 10613 10616 10619 10619 10617 10616 10617 10619 10622 10624 10627 10630 10632 10633 10634 10636 10636 10637
10245 10243 10241 10240 10241 10241 10242 10244 10245 10247 10250 10253 10256 10260 10265 10270 10276 10282 10288 10296 10303 10311 10320 10330 10340 10349 10359 10369 10378 10389 10400 10410 10421 10431 10440 10448 10458 10466 10471 10478 10485 10491 10499 10505 10511 10515 10519 10524 10529 10533 10538 10543 10547 10551 10556 10560 10564 10569 10573 10576 10581 10585 10588 10591 10595 10599 10602 10604 10607 10608 10610 10613 10615 10615 10614 10614 10615 10616 10618 10620 10622 10625 10627 10628 10630 10630 10631 10632
10249 10247 10245 10244 10244 10245 10247 10248 10249 10252 10255 10257 10261 10265 10270 10275 10281 10288 10294 10302 10310 10318 10326 10334 10344 10353 10361 10370 10380 10391 10402 10412 10421 10430 10439 10448 10456 10464 10470 10477 10483 10490 10496 10501 10506 10511 10516 10521 10526 10531 10536 10542 10546 10552 10557 10561 10565 10568 10570 10574 10577 10581 10585 10589 10593 10596 10599 10601 10604 10607 10608 10609 10612 10613 10611 10611 10612 10613 10614 10616 10617 10620 10622 10623 10624 10625 10626 10627
10253 10251 10249 10248 10248 10249 10250 10252 10254 10257 10260 10263 10266 10271 10276 10281 10287 10293 10300 10308 10315 10323 10332 10340 10348 10356 10365 10374 10384 10394 10404 10413 10421 10429 10438 10447 10455 10462 10469 10476 10482 10488 10493 10497 10501 10507 10513 10518 10523 10527 10532 10537 10541 10547 10552 10555 10559 10563 10566 10570 10572 10576 10580 10583 10588 10592 10595 10598 10601 10602 10603 10605 10607 10608 10607 10607 10608 10609 10610 10612 10613 10615 10616 10617 10618 10620 10621 10622
10256 10255 10254 10253 10252 10253 10254 10257 10259 10262 10265 10269 10273 10277 10281 10287 10293 10300 10307 10314 10321 10329 10337 10345 10352 10361 10370 10378 10387 10397 10406 10413 10421 10429 10437 10445 10453 10460 10467 10473 10480 10485 10490 10496 10501 10506 10511 10515 10520 10524 10529 10534 10539 10543 10546 10548 10552 10555 10559 10562 10566 10570 10574 10578 10583 10587 10590 10593 10595 10595 10597 10599 10601 10602 10602 10603 10603 10604 10606 10607 10609 10611 10612 10613 10614 10615 10616 10617
10260 10259 10259 10259 10258 10258 10259 10261 10264 10267 10270 10274 10279 10283 10288 10294 10300 10307 10314 10321 10328 10335 10342 10350 10357 10365 10375 10383 10391 10400 10407 10415 10423 10430 10437 10444 10451 10458 10465 10472 10479 10484 10490 10496 10501 10506 10510 10514 10518 10523 10527 10532 10536 10539 10542 10545 10549 10552 10555 10558 10561 10565 10569 10573 10577 10580 10583 10586 10586 10588 10591 10593 10594 10595 10597 10598 10599 10600 10602 10604 10605 10607 10607 10608 10610 10610 10611 10612
10265 10263 10264 10264 10263 10263 10264 10265 10267 10272 10276 10280 10285 10290 10295 10301 10308 10314 10320 10327 10334 10341 10348 10355 10363 10370 10378 10386 10393 10400 10408 10417 10426 10433 10439 10446 10452 10458 10465 10472 10478 10484 10490 10495 10500 10504 10509 10513 10516 10520 10525 10529 10532 10536 10540 10544 10547 10550 10553 10556 10560 10563 10566 10569 10572 10575 10578 10579 10580 10584 10586 10586 10589 10591 10592 10594 10596 10597 10598 10600 10601 10601 10602 10603 10605 10605 10606 10607
10270 10268 10268 10269 10269 10269 10270 10270 10272 10276 10281 10286 10292 10297 10302 10308 10315 10321 10327 10333 10339 10346 10353 10360 10368 10375 10382 10389 10395 10401 10408 10416 10424 10431 10439 10446 10452 10459 10465 10470 10476 10482 10488 10493 10498 10501 10505 10510 10513 10517 10521 10525 10529 10533 10536 10540 10544 10547 10550 10554 10557 10561 10564 10566 10569 10572 10575 10576 10578 10580 10581 10582 10584 10587 10588 10591 10593 10593 10593 10594 10595 10596 10596 10598 10599 10600 10601 10602
10276 10275 10274 10274 10274 10275 10276 10278 10278 10281 10286 10291 10297 10304 10309 10315 10321 10326 10333 10339 10345 10352 10358 10364 10370 10377 10384 10391 10398 10404 10409 10415 10421 10428 10435 10442 10449 10456 10462 10467 10472 10478 10484 10489 10493 10497 10502 10506 10509 10513 10518 10522 10525 10529 10532 10536 10540 10543 10547 10550 10554 10557 10560 10562 10565 10568 10570 10571 10573 10575 10576 10578 10580 10582 10584 10585 10586 10588 10588 10588 10589 10590 10591 10592 10594 10595 10596 10597
10281 10281 10281 10280 10280 10281 10282 10284 10286 10288 10292 10296 10302 10309 10315 10320 10326 10331 10337 10344 10349 10355 10362 10368 10374 10380 10386 10392 10399 10405 10412 10417 10423 10428 10434 10440 10446 10453 10458 10464 10469 10474 10479 10484 10487 10492 10497 10501 10505 10509 10514 10517 10521 10524 10527 10531 10535 10540 10543 10546 10549 10552 10555 10557 10559 10561 10563 10565 10567 10569 10571 10571 10573 10576 10578 10579 10580 10582 10583 10583 10584 10585 10587 10588 10589 10590 10591 10591